�N����,����,�~����,�C��,���x,�C��,����,���ϕ���,�ő�u�ԕ���,�ő厞����,���˗�,�I�_���x,�n�����x
"20/05/01","01:00",0.0,14.6,81.0,1012.6,336.5,1.1,2.1,325.4,0.00,11.4,15.1
"20/05/01","02:00",0.0,13.0,86.2,1013.0,306.4,0.6,2.4,335.6,0.00,10.8,14.7
"20/05/01","03:00",0.0,13.2,89.0,1012.3,320.1,1.3,2.1,319.4,0.00,11.5,14.6
"20/05/01","04:00",0.0,13.9,90.1,1012.8,332.6,1.1,1.9,322.4,0.00,12.3,14.5
"20/05/01","05:00",0.0,13.7,90.7,1012.8,309.3,1.1,1.9,319.2,0.00,12.2,14.5
"20/05/01","06:00",0.0,14.4,90.9,1013.0,268.2,0.5,1.8,322.5,0.00,13.0,14.4
"20/05/01","07:00",0.0,16.3,87.6,1013.8,200.0,0.6,1.8,190.6,0.36,14.3,15.1
"20/05/01","08:00",0.0,18.5,70.1,1013.3,169.5,1.1,2.5,124.8,1.19,13.0,15.7
"20/05/01","09:00",0.0,20.2,66.3,1012.8,183.4,0.8,2.9,131.7,1.69,13.8,17.0
"20/05/01","10:00",0.0,23.1,59.8,1011.9,196.5,1.1,3.2,190.9,2.04,14.9,18.0
"20/05/01","11:00",0.0,23.1,57.8,1010.9,220.4,1.0,4.5,224.3,1.97,14.4,19.3
"20/05/01","12:00",0.0,24.9,50.3,1010.0,228.3,2.1,5.5,193.8,2.38,13.9,20.1
"20/05/01","13:00",0.0,25.2,44.9,1009.0,204.0,2.6,6.3,223.9,1.78,12.4,20.6
"20/05/01","14:00",0.0,25.9,44.3,1007.8,215.6,2.5,5.6,222.7,2.50,12.9,21.0
"20/05/01","15:00",0.0,26.5,42.9,1007.4,204.7,3.0,5.9,226.0,2.01,12.9,21.2
"20/05/01","16:00",0.0,26.5,42.4,1006.9,236.5,1.6,9.4,194.4,1.88,12.7,21.3
"20/05/01","17:00",0.0,25.2,45.7,1006.9,203.3,3.1,6.2,204.7,1.05,12.7,21.0
"20/05/01","18:00",0.0,23.2,51.8,1007.6,214.4,2.3,6.2,224.9,0.25,12.8,20.4
"20/05/01","19:00",0.0,20.5,61.3,1008.3,8.0,1.1,2.8,202.9,0.00,12.8,19.4
"20/05/01","20:00",0.0,19.4,64.6,1008.6,339.3,1.0,3.3,344.7,0.00,12.6,18.7
"20/05/01","21:00",0.0,18.7,65.9,1009.7,243.2,1.1,2.7,336.7,0.00,12.2,18.3
"20/05/01","22:00",0.0,16.7,70.7,1010.2,314.5,1.6,2.7,339.1,0.00,11.4,17.6
"20/05/01","23:00",0.0,15.1,78.1,1010.2,332.3,1.3,1.9,321.6,0.00,11.4,17.1
"20/05/01","24:00",0.0,14.0,82.8,1010.0,311.0,1.6,2.6,315.8,0.00,11.2,16.5
"20/05/02","01:00",0.0,13.6,84.5,1010.0,322.7,1.3,1.9,328.1,0.00,11.1,15.9
"20/05/02","02:00",0.0,12.9,85.8,1009.5,311.2,1.2,2.1,321.6,0.00,10.6,15.4
"20/05/02","03:00",0.0,12.7,87.3,1010.0,289.8,1.3,2.0,307.5,0.00,10.7,15.4
"20/05/02","04:00",0.0,12.0,88.8,1010.2,303.1,1.3,2.1,323.1,0.00,10.3,14.8
"20/05/02","05:00",0.0,11.7,90.5,1010.4,324.2,2.0,2.2,320.4,0.00,10.2,14.7
"20/05/02","06:00",0.0,12.8,91.8,1011.2,295.3,1.0,2.0,323.0,0.02,11.5,14.7
"20/05/02","07:00",0.0,16.9,90.6,1011.9,76.8,0.1,2.0,322.8,0.38,15.4,15.0
"20/05/02","08:00",0.0,19.8,73.5,1011.9,130.0,1.0,2.7,123.8,1.16,15.0,16.1
"20/05/02","09:00",0.0,22.3,63.5,1010.4,147.6,1.3,3.1,192.9,2.01,15.1,17.6
"20/05/02","10:00",0.0,24.3,59.5,1009.5,153.5,1.6,4.1,148.7,2.74,16.0,19.3
"20/05/02","11:00",0.0,25.9,53.9,1008.6,111.2,1.8,4.9,121.1,3.26,15.9,20.7
"20/05/02","12:00",0.0,26.9,49.5,1008.1,134.6,1.7,6.6,129.9,3.37,15.5,22.4
"20/05/02","13:00",0.0,28.7,45.8,1007.8,166.6,1.5,4.2,135.5,3.17,15.9,23.5
"20/05/02","14:00",0.0,30.1,42.6,1006.9,41.4,1.2,3.7,201.2,2.77,16.0,23.6
"20/05/02","15:00",0.0,30.0,40.5,1006.7,139.2,2.8,5.1,116.4,2.57,15.2,24.0
"20/05/02","16:00",0.0,30.4,38.5,1005.2,307.6,1.6,5.0,177.9,1.90,14.7,23.7
"20/05/02","17:00",0.0,28.9,38.9,1005.0,280.0,1.5,4.3,337.3,0.92,13.6,23.0
"20/05/02","18:00",0.0,26.5,46.4,1005.2,255.4,1.2,3.4,291.3,0.22,14.1,22.6
"20/05/02","19:00",0.0,23.6,54.9,1006.7,334.2,2.1,4.0,232.9,0.00,14.1,21.5
"20/05/02","20:00",0.0,22.3,55.1,1007.8,316.3,1.6,3.4,336.6,0.00,12.9,20.6
"20/05/02","21:00",0.0,19.6,64.2,1009.0,340.8,1.7,3.1,343.8,0.00,12.7,19.8
"20/05/02","22:00",0.0,17.9,66.2,1008.8,299.0,0.2,2.9,337.4,0.00,11.6,19.1
"20/05/02","23:00",0.0,16.4,73.0,1008.8,329.1,1.1,2.2,336.3,0.00,11.6,18.4
"20/05/02","24:00",0.0,15.5,80.1,1008.1,297.5,0.8,2.2,328.5,0.00,12.1,17.6
"20/05/03","01:00",0.0,14.9,81.9,1007.8,297.3,1.2,2.0,337.7,0.00,11.9,17.4
"20/05/03","02:00",0.0,14.8,83.6,1008.3,285.7,1.2,2.0,320.0,0.00,12.1,16.8
"20/05/03","03:00",0.0,14.2,85.2,1008.6,288.7,1.2,2.2,307.2,0.00,11.8,16.7
"20/05/03","04:00",0.0,13.6,87.1,1008.3,296.7,1.1,1.9,330.3,0.00,11.5,16.2
"20/05/03","05:00",0.0,13.5,88.7,1009.0,320.4,1.3,2.2,322.2,0.00,11.7,15.9
"20/05/03","06:00",0.0,14.0,90.3,1009.3,322.8,1.2,1.9,322.9,0.02,12.5,15.7
"20/05/03","07:00",0.0,17.2,88.9,1010.0,321.0,1.0,2.1,330.5,0.44,15.4,16.2
"20/05/03","08:00",0.0,18.7,82.1,1010.2,265.5,0.7,1.8,333.8,0.53,15.6,16.8
"20/05/03","09:00",0.0,19.0,77.6,1009.7,227.4,0.7,1.8,236.7,0.44,15.0,17.2
"20/05/03","10:00",0.0,20.8,71.5,1009.5,53.2,0.6,2.5,242.4,0.91,15.5,17.9
"20/05/03","11:00",0.0,23.2,62.0,1008.6,164.6,1.2,3.2,107.0,2.13,15.6,19.2
"20/05/03","12:00",0.0,24.3,57.3,1007.4,170.8,2.1,4.7,150.1,1.65,15.4,20.0
"20/05/03","13:00",0.0,24.4,49.0,1006.7,167.0,2.8,4.9,147.8,2.23,13.0,20.8
"20/05/03","14:00",0.0,23.6,51.3,1006.0,164.2,2.3,5.0,194.9,1.14,13.0,20.9
"20/05/03","15:00",0.0,22.8,56.1,1006.2,189.2,1.8,4.9,231.3,0.38,13.6,20.3
"20/05/03","16:00",0.0,22.0,57.7,1006.2,260.6,1.8,4.1,244.9,0.26,13.3,20.2
"20/05/03","17:00",0.4,19.2,76.5,1006.0,343.4,1.3,3.5,228.0,0.09,15.0,19.6
"20/05/03","18:00",0.4,18.0,85.4,1006.4,319.2,2.0,3.1,336.5,0.01,15.6,19.0
"20/05/03","19:00",0.0,17.4,88.5,1006.7,285.7,1.1,2.0,340.2,0.00,15.5,18.7
"20/05/03","20:00",0.0,17.1,90.5,1006.9,276.7,1.2,3.2,336.0,0.00,15.6,18.4
"20/05/03","21:00",0.0,16.9,91.6,1007.1,306.6,1.1,2.2,327.3,0.00,15.6,17.9
"20/05/03","22:00",0.0,16.5,92.7,1007.1,291.1,1.1,2.2,324.7,0.00,15.4,17.7
"20/05/03","23:00",0.0,16.3,93.3,1006.7,288.7,1.0,2.1,338.0,0.00,15.3,17.5
"20/05/03","24:00",0.0,16.4,93.7,1006.2,263.6,0.7,1.7,318.9,0.00,15.4,17.4
"20/05/04","01:00",0.0,16.5,94.1,1005.5,292.5,1.0,1.7,304.7,0.00,15.6,17.1
"20/05/04","02:00",0.0,16.3,94.2,1004.5,303.8,0.7,1.4,330.5,0.00,15.4,17.2
"20/05/04","03:00",0.0,16.2,94.3,1004.1,282.0,0.6,1.7,329.3,0.00,15.3,17.1
"20/05/04","04:00",0.0,16.2,94.2,1004.3,313.6,0.8,1.8,341.3,0.00,15.3,17.2
"20/05/04","05:00",0.0,16.0,94.2,1004.1,306.3,0.8,2.2,339.5,0.00,15.1,17.0
"20/05/04","06:00",0.0,16.7,94.0,1004.3,280.6,1.0,1.7,332.3,0.00,15.8,16.7
"20/05/04","07:00",0.0,17.4,93.6,1004.8,321.3,0.8,1.9,337.4,0.03,16.4,16.7
"20/05/04","08:00",0.6,17.8,93.1,1004.5,283.2,1.1,2.6,337.2,0.47,16.7,17.3
"20/05/04","09:00",1.8,18.5,92.9,1004.8,357.1,1.1,2.4,340.6,0.64,17.4,17.8
"20/05/04","10:00",0.2,20.1,91.3,1004.1,161.5,1.0,2.4,234.0,1.65,18.7,18.8
"20/05/04","11:00",0.0,20.1,89.5,1002.6,341.4,1.7,5.2,345.7,1.00,18.4,19.2
"20/05/04","12:00",0.0,22.5,79.8,1001.7,170.6,1.0,3.2,112.2,1.53,18.9,20.1
"20/05/04","13:00",0.0,23.5,70.0,1000.8,14.1,1.1,2.8,233.2,1.90,17.8,21.0
"20/05/04","14:00",0.0,24.3,69.6,1000.5,353.6,0.6,2.2,344.8,1.03,18.4,21.2
"20/05/04","15:00",0.0,26.8,61.7,999.8,143.4,0.7,3.1,341.3,2.08,18.9,21.7
"20/05/04","16:00",0.0,26.1,64.2,998.9,186.7,0.8,3.3,340.7,1.20,18.9,22.2
"20/05/04","17:00",0.0,26.2,62.4,999.1,159.9,0.6,2.6,194.1,1.04,18.5,21.9
"20/05/04","18:00",0.0,24.6,70.4,999.8,329.5,1.1,3.1,203.9,0.19,18.9,21.6
"20/05/04","19:00",0.0,22.2,80.3,1001.0,335.2,1.3,2.5,345.0,0.00,18.7,20.9
"20/05/04","20:00",0.0,22.0,81.1,1001.9,331.3,2.6,4.0,333.9,0.00,18.7,20.5
"20/05/04","21:00",0.0,20.9,86.4,1003.4,345.3,1.1,3.6,325.3,0.00,18.6,20.1
"20/05/04","22:00",0.0,20.2,87.9,1003.8,310.0,0.7,3.5,338.6,0.00,18.2,19.7
"20/05/04","23:00",0.0,20.2,84.9,1004.3,355.5,2.5,5.1,342.8,0.00,17.6,19.5
"20/05/04","24:00",0.0,20.2,81.8,1004.1,349.2,2.2,7.9,346.1,0.00,17.0,19.2
"20/05/05","01:00",0.0,19.3,83.4,1004.3,329.9,1.1,5.9,342.7,0.00,16.5,19.0
"20/05/05","02:00",0.0,18.9,86.6,1003.8,333.3,0.7,2.4,335.2,0.00,16.7,18.7
"20/05/05","03:00",0.0,18.7,87.9,1004.3,304.4,0.8,1.9,355.6,0.00,16.7,18.5
"20/05/05","04:00",0.0,18.8,88.4,1004.5,335.3,1.7,3.2,329.9,0.00,16.9,18.2
"20/05/05","05:00",0.0,18.2,81.7,1005.7,356.4,2.1,5.9,345.9,0.00,15.1,18.3
"20/05/05","06:00",0.0,17.4,80.7,1006.4,352.7,1.7,6.0,344.0,0.02,14.1,17.9
"20/05/05","07:00",0.0,18.0,76.8,1007.6,347.3,2.7,5.1,354.7,0.41,13.9,18.0
"20/05/05","08:00",0.0,18.8,71.9,1007.4,348.3,2.6,5.8,336.9,1.01,13.7,18.4
"20/05/05","09:00",0.0,21.6,60.9,1006.9,329.1,1.5,5.5,328.3,2.01,13.8,19.2
"20/05/05","10:00",0.0,23.5,49.0,1006.2,338.5,2.6,6.2,345.4,2.73,12.2,20.7
"20/05/05","11:00",0.0,25.6,37.0,1005.2,351.2,1.7,6.0,334.4,3.38,9.9,22.2
"20/05/05","12:00",0.0,26.9,31.8,1004.1,359.8,2.2,6.2,338.0,3.68,8.8,23.6
"20/05/05","13:00",0.0,28.1,32.4,1003.8,240.4,1.5,5.0,338.7,3.65,10.1,24.6
"20/05/05","14:00",0.0,28.5,31.2,1003.4,255.5,1.7,4.5,333.8,3.16,9.9,24.3
"20/05/05","15:00",0.0,28.3,31.6,1002.4,291.5,2.0,4.7,240.6,2.56,9.9,24.8
"20/05/05","16:00",0.0,27.5,31.4,1001.9,273.2,2.0,5.2,230.2,1.46,9.1,24.3
"20/05/05","17:00",0.0,26.4,31.0,1002.4,281.9,1.8,6.4,219.9,0.85,8.0,23.7
"20/05/05","18:00",0.0,24.3,35.2,1002.9,324.6,1.8,4.7,329.9,0.28,8.0,22.7
"20/05/05","19:00",0.0,21.0,50.9,1004.1,294.2,1.2,3.2,323.1,0.01,10.5,21.7
"20/05/05","20:00",0.0,19.7,54.7,1006.0,293.6,1.3,3.1,346.2,0.00,10.4,21.1
"20/05/05","21:00",0.0,18.1,60.4,1005.7,305.1,1.6,2.9,338.7,0.00,10.4,19.9
"20/05/05","22:00",0.0,17.4,63.1,1005.5,321.1,1.8,3.5,314.8,0.00,10.4,19.7
"20/05/05","23:00",0.0,16.3,66.6,1005.0,297.6,1.3,2.7,338.6,0.00,10.1,18.8
"20/05/05","24:00",0.0,16.5,63.0,1005.5,321.3,2.0,4.0,336.7,0.00,9.5,18.7
"20/05/06","01:00",0.0,15.4,63.2,1005.0,308.1,1.7,3.3,339.0,0.00,8.5,18.1
"20/05/06","02:00",0.0,15.7,62.3,1005.0,336.1,1.7,3.5,321.6,0.00,8.6,17.7
"20/05/06","03:00",0.0,15.5,68.4,1005.2,324.4,2.0,4.2,348.5,0.00,9.8,17.4
"20/05/06","04:00",0.0,14.6,70.4,1005.5,298.5,0.8,2.4,326.0,0.00,9.3,17.2
"20/05/06","05:00",0.0,14.3,70.8,1005.5,286.1,1.0,2.9,338.1,0.00,9.1,17.1
"20/05/06","06:00",0.0,15.8,71.7,1006.0,295.2,2.0,3.9,336.4,0.00,10.7,17.3
"20/05/06","07:00",0.0,17.4,73.7,1006.2,331.9,0.7,3.9,330.1,0.16,12.7,17.4
"20/05/06","08:00",0.0,18.0,74.8,1006.2,309.6,1.2,2.4,312.8,0.19,13.5,17.6
"20/05/06","09:00",0.0,19.4,74.4,1006.0,314.1,1.0,1.9,345.3,0.32,14.8,17.9
"20/05/06","10:00",0.0,21.6,65.0,1005.5,215.3,1.0,2.2,223.6,0.75,14.8,18.7
"20/05/06","11:00",0.0,23.0,64.9,1004.5,144.7,1.0,2.4,351.8,0.90,16.1,19.4
"20/05/06","12:00",0.0,23.5,64.9,1004.3,337.0,0.8,2.4,339.1,0.66,16.6,19.9
"20/05/06","13:00",0.0,24.3,64.7,1002.9,138.7,1.3,3.4,237.1,1.10,17.3,20.3
"20/05/06","14:00",0.0,24.4,57.3,1003.4,337.8,2.1,4.4,351.4,0.91,15.5,20.7
"20/05/06","15:00",0.0,21.5,66.9,1004.3,340.3,3.2,8.3,319.9,0.17,15.1,20.5
"20/05/06","16:00",0.0,19.9,60.0,1005.0,333.6,4.9,9.7,342.0,0.15,12.0,20.0
"20/05/06","17:00",0.0,17.9,68.2,1005.7,347.7,3.4,10.3,338.9,0.06,12.0,19.0
"20/05/06","18:00",0.0,17.4,71.4,1006.4,337.9,3.5,8.2,342.0,0.05,12.2,19.0
"20/05/06","19:00",0.0,16.7,69.2,1007.4,302.3,1.0,6.3,326.3,0.00,11.1,18.6
"20/05/06","20:00",0.0,16.2,69.2,1007.8,331.0,3.0,6.2,347.2,0.00,10.6,18.0
"20/05/06","21:00",0.0,15.1,71.1,1008.8,346.5,1.7,6.8,341.3,0.00,9.9,17.5
"20/05/06","22:00",0.0,13.2,75.4,1008.8,314.6,1.2,3.2,327.2,0.00,9.0,16.9
"20/05/06","23:00",0.0,11.9,82.7,1008.8,308.7,1.3,3.1,3.0,0.00,9.1,16.4
"20/05/06","24:00",0.0,13.4,84.7,1009.0,321.0,2.1,3.9,336.2,0.00,10.9,16.3
"20/05/07","01:00",0.0,13.9,73.2,1009.0,315.0,2.1,7.1,339.2,0.00,9.2,16.1
"20/05/07","02:00",0.0,12.9,74.4,1009.5,319.2,3.0,6.7,332.8,0.00,8.5,15.7
"20/05/07","03:00",0.0,12.2,72.9,1009.7,320.7,1.2,4.3,338.4,0.00,7.5,15.3
"20/05/07","04:00",0.0,10.3,81.7,1009.5,313.4,1.8,3.5,344.3,0.00,7.4,14.7
"20/05/07","05:00",0.0,9.6,83.9,1010.4,298.7,1.7,3.1,330.6,0.00,7.1,14.6
"20/05/07","06:00",0.0,12.6,80.0,1011.4,311.3,2.1,3.7,324.0,0.01,9.3,14.6
"20/05/07","07:00",0.0,15.2,62.2,1012.6,351.2,2.7,6.5,347.9,0.50,8.1,15.1
"20/05/07","08:00",0.0,16.1,56.2,1012.6,350.3,3.5,8.2,342.6,1.30,7.4,15.9
"20/05/07","09:00",0.0,18.0,47.0,1012.3,342.0,2.7,7.5,26.0,2.12,6.6,17.2
"20/05/07","10:00",0.0,19.4,39.3,1011.6,0.7,2.7,7.5,343.8,3.04,5.3,18.3
"20/05/07","11:00",0.0,20.1,38.3,1011.4,352.3,3.4,9.6,341.8,3.55,5.5,20.1
"20/05/07","12:00",0.0,20.8,33.7,1010.4,10.5,2.2,7.4,342.3,3.79,4.3,21.4
"20/05/07","13:00",0.0,21.7,31.3,1009.7,5.6,2.5,7.2,337.4,3.80,4.0,22.2
"20/05/07","14:00",0.0,22.2,31.0,1008.8,1.9,3.2,8.8,327.0,3.54,4.3,22.0
"20/05/07","15:00",0.0,21.2,33.3,1008.8,347.9,4.5,8.8,347.0,2.98,4.5,22.1
"20/05/07","16:00",0.0,19.6,44.3,1009.3,346.6,5.1,9.8,347.4,2.09,7.2,21.7
"20/05/07","17:00",0.0,18.0,52.0,1009.7,341.7,4.0,13.4,341.2,1.26,8.0,20.7
"20/05/07","18:00",0.0,15.6,60.6,1010.9,341.5,4.2,10.8,324.5,0.26,8.1,20.1
"20/05/07","19:00",0.0,14.4,65.2,1011.9,337.1,4.6,9.1,331.8,0.00,8.0,18.9
"20/05/07","20:00",0.0,14.0,68.0,1012.8,333.9,4.7,9.1,341.9,0.00,8.2,18.0
"20/05/07","21:00",0.0,13.3,69.6,1014.2,318.7,2.1,8.2,337.2,0.00,7.9,17.3
"20/05/07","22:00",0.0,12.4,73.0,1014.5,297.7,1.6,3.9,330.6,0.00,7.7,16.8
"20/05/07","23:00",0.0,11.2,78.2,1014.9,306.6,1.8,3.3,331.3,0.00,7.6,16.1
"20/05/07","24:00",0.0,11.3,80.2,1015.2,308.6,2.5,4.4,320.3,0.00,8.1,15.4
"20/05/08","01:00",0.0,10.8,80.6,1014.9,277.7,1.6,3.7,349.8,0.00,7.6,15.3
"20/05/08","02:00",0.0,10.7,82.8,1014.7,326.9,2.6,4.4,343.6,0.00,7.9,14.8
"20/05/08","03:00",0.0,10.6,84.4,1014.9,333.4,3.1,4.9,341.2,0.00,8.1,14.8
"20/05/08","04:00",0.0,10.5,84.9,1015.4,334.2,3.5,6.5,328.5,0.00,8.1,14.6
"20/05/08","05:00",0.0,9.7,84.1,1015.4,326.3,2.2,4.9,332.4,0.00,7.2,14.4
"20/05/08","06:00",0.0,10.0,85.4,1015.4,290.9,1.3,3.9,342.1,0.04,7.7,14.2
"20/05/08","07:00",0.0,14.6,73.5,1015.9,345.5,0.8,2.1,310.4,0.46,10.0,14.9
"20/05/08","08:00",0.0,18.2,56.5,1015.6,298.3,0.5,1.8,341.7,1.37,9.5,15.9
"20/05/08","09:00",0.0,19.7,50.2,1014.9,181.9,1.3,2.9,190.7,2.26,9.1,17.5
"20/05/08","10:00",0.0,21.5,47.9,1014.7,167.0,1.7,3.7,102.6,3.04,10.0,19.4
"20/05/08","11:00",0.0,23.2,42.0,1013.8,198.8,2.2,5.2,152.5,3.39,9.6,21.1
"20/05/08","12:00",0.0,23.8,36.0,1013.0,267.3,1.7,7.4,207.6,3.04,7.9,22.4
"20/05/08","13:00",0.0,25.0,37.0,1012.1,164.3,3.0,5.8,120.9,3.20,9.4,23.1
"20/05/08","14:00",0.0,24.9,40.2,1011.6,182.5,2.1,6.3,227.0,3.27,10.5,22.9
"20/05/08","15:00",0.0,24.9,41.7,1010.9,216.2,2.2,7.1,229.4,2.69,11.1,23.4
"20/05/08","16:00",0.0,23.6,48.0,1011.4,223.3,2.8,6.2,224.6,1.19,12.0,23.1
"20/05/08","17:00",0.0,22.8,50.4,1011.6,266.7,2.2,5.5,228.1,1.14,12.0,22.5
"20/05/08","18:00",0.0,20.7,58.0,1012.8,269.8,1.8,5.5,324.9,0.15,12.2,21.7
"20/05/08","19:00",0.0,19.8,60.3,1013.3,305.0,1.5,5.9,253.1,0.00,11.9,20.9
"20/05/08","20:00",0.0,19.3,61.4,1014.5,320.9,1.1,2.9,333.4,0.00,11.7,20.2
"20/05/08","21:00",0.0,19.0,64.2,1015.4,262.2,0.5,2.7,342.5,0.00,12.1,19.7
"20/05/08","22:00",0.0,18.8,66.4,1015.4,245.4,1.5,3.5,334.9,0.00,12.5,19.4
"20/05/08","23:00",0.0,18.0,68.4,1014.9,285.7,1.1,3.1,294.8,0.00,12.1,18.7
"20/05/08","24:00",0.0,16.2,75.3,1014.5,315.8,1.2,2.1,328.0,0.00,11.9,18.2
"20/05/09","01:00",0.0,14.6,81.6,1014.0,303.4,1.0,2.0,337.9,0.00,11.5,17.7
"20/05/09","02:00",0.0,13.6,84.6,1014.2,298.5,1.0,1.9,327.2,0.00,11.1,17.3
"20/05/09","03:00",0.0,13.3,86.9,1013.8,304.9,1.3,2.1,321.0,0.00,11.2,16.8
"20/05/09","04:00",0.0,13.0,88.4,1013.5,279.1,1.3,2.0,305.4,0.00,11.2,16.5
"20/05/09","05:00",0.0,12.7,88.7,1014.0,303.0,1.1,3.2,327.8,0.00,10.9,16.5
"20/05/09","06:00",0.0,13.4,89.0,1014.2,291.9,0.8,2.1,330.0,0.03,11.7,16.0
"20/05/09","07:00",0.0,17.3,81.7,1014.9,300.3,0.6,2.1,322.6,0.49,14.2,16.7
"20/05/09","08:00",0.0,19.2,64.9,1014.2,317.9,0.6,2.2,330.0,0.87,12.5,17.5
"20/05/09","09:00",0.0,19.3,62.0,1013.5,237.1,1.0,2.5,236.0,0.81,11.9,18.1
"20/05/09","10:00",0.0,21.5,52.1,1012.6,170.7,2.2,4.4,163.6,1.79,11.3,19.3
"20/05/09","11:00",0.0,21.1,55.3,1011.6,155.9,2.0,5.6,192.8,1.13,11.8,19.5
"20/05/09","12:00",0.0,21.0,53.3,1010.9,185.8,2.3,5.5,151.9,1.18,11.2,19.8
"20/05/09","13:00",0.0,21.6,48.6,1010.2,220.1,2.2,5.6,193.0,0.64,10.4,19.7
"20/05/09","14:00",0.0,21.9,49.2,1009.3,174.4,1.7,6.3,231.9,0.61,10.8,19.7
"20/05/09","15:00",0.0,21.7,49.3,1009.0,174.4,1.5,4.7,186.1,0.39,10.7,19.5
"20/05/09","16:00",0.0,20.4,62.7,1008.8,105.1,1.3,4.4,104.2,0.15,13.1,19.3
"20/05/09","17:00",1.6,17.6,80.4,1009.3,327.8,1.0,2.8,113.9,0.03,14.2,18.9
"20/05/09","18:00",1.2,17.1,86.9,1009.3,290.0,1.2,2.5,320.5,0.11,14.9,18.6
"20/05/09","19:00",0.0,16.4,89.5,1009.5,339.4,0.7,2.1,324.8,0.01,14.7,18.5
"20/05/09","20:00",0.0,16.0,91.1,1009.3,265.5,0.8,1.8,342.2,0.00,14.6,18.2
"20/05/09","21:00",0.2,15.8,92.2,1009.7,294.0,1.1,1.9,334.1,0.00,14.6,17.7
"20/05/09","22:00",0.2,15.6,93.1,1009.3,333.9,1.1,1.8,275.7,0.00,14.5,17.6
"20/05/09","23:00",0.0,15.5,93.6,1009.0,286.8,0.8,1.6,321.4,0.00,14.5,17.4
"20/05/09","24:00",0.0,15.4,94.2,1008.1,292.9,0.7,1.8,335.3,0.00,14.5,17.2
"20/05/10","01:00",0.0,15.6,94.6,1007.6,339.6,1.1,1.8,262.0,0.00,14.8,17.1
"20/05/10","02:00",0.0,15.6,95.0,1006.7,295.9,0.7,1.6,338.3,0.00,14.8,17.2
"20/05/10","03:00",0.0,15.5,95.4,1006.0,307.8,1.1,1.8,319.5,0.00,14.8,17.1
"20/05/10","04:00",0.0,15.6,95.5,1005.5,312.7,1.3,2.1,323.6,0.00,14.9,17.1
"20/05/10","05:00",0.0,15.7,95.8,1004.8,300.9,1.0,2.0,302.0,0.00,15.1,17.0
"20/05/10","06:00",0.0,16.0,95.9,1004.8,280.9,1.1,2.4,323.8,0.00,15.4,16.9
"20/05/10","07:00",0.0,16.9,95.9,1003.8,338.9,1.5,2.7,337.9,0.08,16.3,17.2
"20/05/10","08:00",0.0,17.9,95.2,1003.8,291.9,1.0,2.7,232.1,0.22,17.2,17.3
"20/05/10","09:00",0.0,19.5,92.3,1002.9,316.9,1.1,3.1,342.1,0.83,18.3,18.1
"20/05/10","10:00",0.0,20.6,85.3,1002.2,297.6,1.0,2.6,336.5,0.50,18.1,18.5
"20/05/10","11:00",0.0,22.0,79.2,1000.8,224.6,0.7,2.0,328.9,0.73,18.3,19.2
"20/05/10","12:00",0.0,22.4,77.4,999.8,274.7,0.7,1.8,230.8,0.45,18.3,19.4
"20/05/10","13:00",0.0,22.4,80.9,999.3,317.4,1.1,2.5,347.9,0.25,19.0,19.5
"20/05/10","14:00",0.0,22.7,83.2,998.9,304.2,0.5,2.4,345.5,0.18,19.7,19.6
"20/05/10","15:00",0.0,24.8,79.7,997.7,32.5,1.0,2.4,345.0,0.48,21.1,19.9
"20/05/10","16:00",0.0,24.8,76.6,997.4,278.5,1.1,3.3,333.4,0.23,20.4,20.1
"20/05/10","17:00",0.0,24.7,77.1,997.7,283.3,1.2,6.3,325.0,0.47,20.5,20.0
"20/05/10","18:00",0.0,23.6,81.0,997.9,316.1,1.3,3.7,309.2,0.11,20.2,20.2
"20/05/10","19:00",0.0,22.8,83.3,998.4,323.1,0.6,2.7,334.7,0.00,19.9,20.1
"20/05/10","20:00",0.0,21.7,86.5,999.1,299.8,0.6,1.8,355.7,0.00,19.4,19.7
"20/05/10","21:00",0.8,21.0,89.6,999.8,173.1,1.2,2.4,318.6,0.00,19.3,19.4
"20/05/10","22:00",0.8,19.3,91.5,1000.0,294.6,0.8,2.0,348.0,0.00,17.9,19.3
"20/05/10","23:00",0.6,18.9,92.7,1000.3,328.7,1.0,2.7,330.9,0.00,17.7,19.1
"20/05/10","24:00",0.2,18.8,93.5,1000.5,297.8,0.7,1.7,340.1,0.00,17.8,18.8
"20/05/11","01:00",0.2,18.7,94.2,1000.3,339.4,0.7,2.2,235.6,0.00,17.8,18.7
"20/05/11","02:00",0.2,18.6,94.7,1000.5,313.7,1.1,2.0,332.8,0.00,17.8,18.6
"20/05/11","03:00",0.0,17.4,95.2,1001.0,319.2,1.8,5.6,326.3,0.00,16.7,18.6
"20/05/11","04:00",0.2,17.2,94.9,1001.2,308.7,1.7,4.0,314.0,0.00,16.4,18.0
"20/05/11","05:00",0.0,17.1,94.7,1001.5,314.5,1.3,3.4,336.8,0.00,16.3,18.3
"20/05/11","06:00",0.0,17.4,94.6,1002.2,313.4,1.3,2.5,335.9,0.03,16.6,18.0
"20/05/11","07:00",0.0,19.5,92.9,1002.4,303.8,1.0,3.4,325.6,0.40,18.4,18.2
"20/05/11","08:00",0.0,22.3,77.8,1002.4,296.1,0.8,2.9,276.7,1.38,18.3,19.1
"20/05/11","09:00",0.0,23.1,66.7,1001.2,270.5,1.8,4.3,351.2,2.14,16.6,20.2
"20/05/11","10:00",0.0,24.4,60.2,1001.0,285.3,2.2,6.8,336.6,2.97,16.2,21.7
"20/05/11","11:00",0.0,26.2,52.0,999.6,242.1,2.5,7.3,223.4,3.53,15.6,22.9
"20/05/11","12:00",0.2,27.9,35.6,998.4,277.3,1.8,5.6,215.0,3.78,11.3,24.2
"20/05/11","13:00",0.0,28.9,31.7,998.4,251.0,2.3,5.1,243.0,3.74,10.5,25.0
"20/05/11","14:00",0.0,30.7,30.0,998.6,238.8,1.2,5.7,222.8,3.48,11.2,24.5
"20/05/11","15:00",0.0,29.1,41.4,997.7,159.1,2.1,5.2,342.9,2.92,14.7,24.7
"20/05/11","16:00",0.0,28.8,43.6,997.2,169.9,2.3,5.9,219.8,2.13,15.2,24.8
"20/05/11","17:00",0.0,27.1,42.0,997.2,97.2,2.6,5.6,130.2,1.29,13.1,24.2
"20/05/11","18:00",0.0,25.0,50.0,998.6,90.2,0.8,4.5,98.0,0.19,13.9,23.5
"20/05/11","19:00",0.0,22.2,56.5,999.6,337.3,1.0,3.3,118.4,0.00,13.2,22.6
"20/05/11","20:00",0.0,19.3,68.0,1001.2,293.4,0.8,2.4,339.1,0.00,13.3,21.8
"20/05/11","21:00",0.0,17.8,73.5,1001.7,304.2,1.1,2.1,332.5,0.00,13.0,20.7
"20/05/11","22:00",0.0,16.3,79.1,1001.9,301.1,1.0,1.8,315.8,0.00,12.7,20.2
"20/05/11","23:00",0.0,15.8,81.8,1002.4,288.3,1.2,2.1,302.1,0.00,12.7,19.5
"20/05/11","24:00",0.0,15.0,83.9,1002.6,301.9,1.3,2.2,311.5,0.00,12.3,19.1
"20/05/12","01:00",0.0,14.5,85.5,1002.2,296.8,1.1,2.4,327.1,0.00,12.1,18.6
"20/05/12","02:00",0.0,13.5,86.9,1001.2,299.0,1.1,2.0,317.1,0.00,11.4,18.0
"20/05/12","03:00",0.0,12.6,88.9,1000.8,300.3,0.8,2.2,329.9,0.00,10.9,17.5
"20/05/12","04:00",0.0,12.1,90.7,1001.0,321.5,1.7,2.6,318.8,0.00,10.7,17.1
"20/05/12","05:00",0.0,11.5,91.9,1001.2,324.4,1.7,2.8,323.9,0.00,10.3,16.8
"20/05/12","06:00",0.0,13.1,92.8,1001.2,287.8,0.7,2.1,322.6,0.01,12.0,16.3
"20/05/12","07:00",0.0,17.6,89.1,1002.4,345.0,0.7,2.1,339.5,0.48,15.8,17.1
"20/05/12","08:00",0.0,21.3,63.6,1000.8,334.2,0.5,1.9,345.6,1.32,14.2,18.2
"20/05/12","09:00",0.0,24.1,50.8,999.6,155.0,0.7,2.8,129.4,2.11,13.3,19.7
"20/05/12","10:00",0.0,25.2,43.8,998.2,195.4,1.3,3.7,122.5,2.28,12.1,21.0
"20/05/12","11:00",0.0,27.9,35.0,998.4,151.9,1.2,3.5,129.0,2.75,11.1,22.6
"20/05/12","12:00",0.0,28.5,28.5,998.2,205.0,2.1,4.2,216.5,2.90,8.5,23.4
"20/05/12","13:00",0.0,28.6,27.2,997.9,215.3,3.2,8.1,229.1,3.05,7.9,24.2
"20/05/12","14:00",0.0,27.2,34.5,997.0,264.7,2.0,6.0,187.1,1.68,10.2,23.9
"20/05/12","15:00",0.0,26.8,39.7,996.3,313.2,2.0,6.5,338.8,1.21,12.0,23.6
"20/05/12","16:00",0.0,25.6,29.8,997.2,295.6,2.1,5.2,338.8,0.99,6.7,23.3
"20/05/12","17:00",0.0,25.3,31.5,997.2,286.5,1.7,6.7,338.5,0.43,7.2,22.7
"20/05/12","18:00",0.0,24.2,38.9,997.9,247.2,1.8,4.9,233.9,0.28,9.4,22.2
"20/05/12","19:00",0.0,22.6,44.1,999.1,274.9,1.6,5.5,220.9,0.02,9.8,21.3
"20/05/12","20:00",0.0,21.5,48.4,999.6,314.1,2.1,6.6,329.9,0.00,10.2,20.5
"20/05/12","21:00",0.0,18.9,59.1,1000.5,310.3,1.1,3.4,336.7,0.00,10.8,20.0
"20/05/12","22:00",0.0,19.2,59.2,1000.8,310.9,0.8,3.9,324.7,0.00,11.1,19.5
"20/05/12","23:00",0.0,16.9,68.4,1001.0,338.3,0.8,3.1,336.7,0.00,11.1,19.0
"20/05/12","24:00",0.0,15.8,74.3,1001.2,312.5,1.1,2.9,330.4,0.00,11.3,18.3
"20/05/13","01:00",0.0,14.8,78.4,1001.0,310.3,1.1,3.3,335.0,0.00,11.1,18.0
"20/05/13","02:00",0.0,13.7,83.1,1001.2,317.2,1.0,2.2,333.0,0.00,10.9,17.7
"20/05/13","03:00",0.0,13.5,86.3,1001.0,312.2,1.2,2.8,321.5,0.00,11.3,17.4
"20/05/13","04:00",0.0,13.5,87.8,1001.5,324.5,1.2,2.4,319.5,0.00,11.6,16.8
"20/05/13","05:00",0.0,13.1,88.5,1002.6,283.3,0.5,2.0,318.7,0.00,11.3,16.6
"20/05/13","06:00",0.0,14.6,87.5,1003.4,305.6,0.7,2.1,321.3,0.03,12.6,16.4
"20/05/13","07:00",0.0,19.5,66.2,1004.5,295.8,1.7,3.5,282.9,0.46,13.1,17.1
"20/05/13","08:00",0.0,21.0,56.7,1004.5,286.0,1.6,5.4,250.0,1.18,12.1,18.0
"20/05/13","09:00",0.0,20.9,53.7,1005.5,340.8,3.2,7.8,326.0,1.18,11.2,18.7
"20/05/13","10:00",0.0,22.2,47.1,1004.5,310.5,2.0,5.0,339.8,1.97,10.4,19.9
"20/05/13","11:00",0.0,23.7,43.1,1004.3,298.4,2.7,7.4,350.2,2.93,10.5,21.2
"20/05/13","12:00",0.0,25.2,37.8,1003.6,327.5,1.6,7.3,3.7,3.11,9.8,22.6
"20/05/13","13:00",0.0,25.2,35.1,1003.8,312.3,2.3,9.1,346.8,3.58,8.7,23.3
"20/05/13","14:00",0.0,25.1,33.1,1003.6,341.0,2.6,7.2,351.8,2.88,7.8,23.1
"20/05/13","15:00",0.0,25.1,37.3,1003.8,0.0,2.8,9.8,340.4,2.74,9.6,23.2
"20/05/13","16:00",0.0,23.6,38.0,1005.0,345.0,3.6,7.8,344.2,2.19,8.5,23.2
"20/05/13","17:00",0.0,22.4,39.1,1006.2,345.7,3.0,9.0,336.8,1.29,7.9,22.6
"20/05/13","18:00",0.0,20.8,41.8,1007.1,9.7,2.0,6.3,346.3,0.14,7.4,22.0
"20/05/13","19:00",0.0,18.1,44.3,1008.8,0.9,2.0,4.7,349.0,0.00,5.8,20.9
"20/05/13","20:00",0.0,15.9,49.7,1010.0,330.7,2.3,4.2,341.7,0.00,5.5,20.0
"20/05/13","21:00",0.0,13.2,60.2,1011.2,299.6,1.2,3.5,319.3,0.00,5.7,19.1
"20/05/13","22:00",0.0,12.8,63.8,1011.4,294.9,2.3,4.1,311.8,0.00,6.2,18.3
"20/05/13","23:00",0.0,12.0,65.5,1011.4,312.0,2.2,3.6,338.8,0.00,5.8,17.7
"20/05/13","24:00",0.0,11.5,67.3,1011.6,330.4,2.3,4.0,335.5,0.00,5.7,17.0
"20/05/14","01:00",0.0,11.1,68.0,1011.6,329.9,2.1,4.2,324.9,0.00,5.5,16.6
"20/05/14","02:00",0.0,11.0,67.5,1012.1,331.1,2.7,4.7,340.0,0.00,5.3,16.1
"20/05/14","03:00",0.0,9.7,69.9,1012.1,319.0,1.5,5.0,342.8,0.00,4.5,15.8
"20/05/14","04:00",0.0,8.9,74.2,1012.8,295.1,1.7,2.6,315.7,0.00,4.6,15.2